Regional Weather Roundup
Issued by NWS

Home | Current Version | Previous Version | Text Only | Print | Product List | Glossary On
Versions: 1 2 3 4 5 6 7 8 9 10 11 12 13 14 15 16 17 18 19 20 21 22 23 24 25 26 27 28 29 30 31 32 33 34 35 36 37 38 39 40 41 42 43 44 45 46 47 48 49 50
000
ASUS43 KLOT 090712
RWRIL

ILLINOIS REGIONAL WEATHER ROUNDUP
NATIONAL WEATHER SERVICE CHICAGO/ROMEOVILLE IL
100 AM CST FRI DEC 09 2016

NOTE: "FAIR" INDICATES FEW OR NO CLOUDS BELOW 12,000 FEET WITH NO
SIGNIFICANT WEATHER AND/OR OBSTRUCTIONS TO VISIBILITY.

* THESE STATIONS ARE NOT UNDER NWS QUALITY CONTROL. THEY ALSO MAY NOT
  REPORT WEATHER SUCH AS PRECIPITATION OR FOG.

ILZ001-002-007-009-015-016-024-090800-
NORTHWEST ILLINOIS

CITY           SKY/WX    TMP DP  RH WIND       PRES   REMARKS
MOLINE         CLOUDY    22  11  62 NW12      30.51F WCI  10
STERLING*      CLOUDY    21  16  81 W14       30.48S WCI   8
SAVANNA*       CLOUDY    22  14  72 W13G18    30.49R WCI   9
$$

ILZ003-004-008-010-011-017-018-090800-
NORTH CENTRAL ILLINOIS

CITY           SKY/WX    TMP DP  RH WIND       PRES   REMARKS
ROCKFORD       FLURRIES  22  16  78 W8        30.46S WCI  12
FREEPORT*      CLOUDY    20  15  81 W13       30.46S WCI   8
ROCHELLE*      CLOUDY    21  16  82 W14       30.46S WCI   8
DE KALB*       FLURRIES  20  16  83 W16       30.43S WCI   6
$$

ILZ005-006-012>014-019>023-090800-
NORTHEAST ILLINOIS

CITY           SKY/WX    TMP DP  RH WIND       PRES   REMARKS
CHICAGO-OHARE  PTCLDY    21  16  81 W13       30.41S WCI   9
CHICAGO-MIDWAY PTCLDY    22  15  75 W10       30.42S WCI  11
AURORA         PTCLDY    20  14  77 W12       30.44S WCI   8
LANSING*       MOCLDY    21  18  88 W8        30.43S WCI  11
JOLIET*        MOCLDY    22  17  81 W7        30.46R WCI  14
WAUKEGAN       MOCLDY    21  16  81 W8        30.38S WCI  11
DUPAGE AIRPORT PTCLDY    20  14  77 W15       30.42S WCI   6
KANKAKEE*      PTCLDY    22  16  76 W12       30.46S WCI  10
WHEELING       CLEAR     21  15  78 W10       30.43R WCI  10
MORRIS*        MOCLDY    21  16  81 W9        30.45S WCI  11
ROMEOVILLE*    CLEAR     20  18  92 W10       30.44S WCI   9
NORTHERLY ISL    N/A     24  18  77 W14         N/A  WCI  12
$$

LMZ740>746-090800-
SOUTHERN LAKE MICHIGAN

STATION/POSITION SKY/WX   TEMP    WIND        PRES    VSBY  WAVE
                          AIR SEA DIR/SP/G                  HT/PER
                          (F)     (DEG/KT/KT) (MB)    (MI)  (FT/S)
HARRISON CRIB              24     270/ 21/ 24   N/A
BURNHAM HARBOR             24     250/ 12/ 17   N/A
CALUMET HARBOR             22     250/  5/  9 1029.3S
BURNS HARBOR               27     280/ 17/ 23 1029.8
$$

ILZ025>027-034>036-040-047-049-050-058-095>099-090800-
WEST-CENTRAL ILLINOIS

CITY           SKY/WX    TMP DP  RH WIND       PRES   REMARKS
QUINCY         CLEAR     17  11  77 W8        30.56S WCI   7
GALESBURG*     FLURRIES  21  16  81 NW8       30.52R WCI  12
MACOMB*        CLOUDY    23  16  75 W12       30.55S WCI  12
JACKSONVILLE*  CLOUDY    20  12  72 W9        30.56R WCI   9
PITTSFIELD*    CLEAR     19  12  76 W5        30.57S WCI  12
$$

ILZ028>032-037-038-041>044-048-051>054-059>061-090800-
CENTRAL ILLINOIS

CITY           SKY/WX    TMP DP  RH WIND       PRES   REMARKS
PONTIAC        CLOUDY    24  17  75 W15       30.49R WCI  11
BLOOMINGTON    FLURRIES  21  14  74 NW16      30.49S WCI   7
DECATUR        CLOUDY    22  13  68 NW10      30.52F WCI  11
PEORIA         CLOUDY    22  15  75 NW9       30.52S WCI  12
LACON*         CLOUDY    22  13  69 NW14G20   30.50S WCI   9
LINCOLN*       FLURRIES  24  17  74 W5        30.53S WCI  18
SPRINGFIELD    CLOUDY    23  14  68 W9        30.54F WCI  13
TAYLORVILLE    CLOUDY    22  14  69 CALM      30.54F
$$

ILZ033-039-045-046-055>057-062-063-090800-
EAST-CENTRAL ILLINOIS

CITY           SKY/WX    TMP DP  RH WIND       PRES   REMARKS
CHAMPAIGN      LGT SNOW  21  15  78 W14       30.50F WCI   8
RANTOUL*       FLURRIES  24  18  78 W13       30.49S WCI  12
MATTOON        FLURRIES  20  13  74 W10       30.52S WCI   9
PARIS*         FLURRIES  21  17  86 W9        30.52S WCI  10
$$

ILZ079-100>102-090800-
SOUTHWEST ILLINOIS

CITY           SKY/WX    TMP DP  RH WIND       PRES   REMARKS
ALTON          CLEAR     18  13  81 W6        30.59S WCI  10
BELLEVILLE     CLEAR     20  13  74 W7        30.58S WCI  11
CAHOKIA*       CLEAR     23  12  62 NW10      30.60S WCI  12
SPARTA*        CLEAR     21  13  71 NW7       30.59S WCI  13
$$

ILZ064>066-069>071-074>076-080>082-084>086-088>090-092>094-090800-
SOUTH-CENTRAL ILLINOIS

CITY           SKY/WX    TMP DP  RH WIND       PRES   REMARKS
CARBONDALE     CLEAR     21  14  74 NW5       30.58F WCI  15
CAIRO*         CLEAR     21  14  72 W5        30.60F WCI  15
EFFINGHAM*     CLOUDY    22  15  75 W12G18    30.56F WCI  11
MARION         CLOUDY    25  16  68 CALM      30.58S
CENTRALIA*     PTCLDY    24  15  68 NW9       30.56S WCI  14
SALEM*         CLOUDY    23  14  68 NW8       30.57S WCI  14
METROPOLIS*    PTCLDY    23  14  69 CALM      30.59S
$$

ILZ067-068-072-073-078-083-087-091-090800-
SOUTHEAST ILLINOIS

CITY           SKY/WX    TMP DP  RH WIND       PRES   REMARKS
LAWRENCEVILLE  CLOUDY    24  13  62 NW13      30.55F WCI  12
FLORA*         MOCLDY    24  15  68 NW13      30.57S WCI  12
FAIRFIELD*     MOCLDY    24  13  62 NW5       30.56R WCI  18
HARRISBURG*    CLOUDY    26  16  67 NW8       30.58S WCI  17
ROBINSON*      FLURRIES  22  14  73 NW8       30.56S WCI  12
CARMI*         CLOUDY    26  15  63 NW13      30.56S WCI  15
$$

ABBREVIATIONS USED IN REMARKS
   TC - TEMPERATURE IN CELSIUS
  WCI - WIND CHILL INDEX
   HX - HEAT INDEX
  VSB - VISIBILITY
$$





USA.gov is the U.S. government's official web portal to all federal, state and local government web resources and services.